Weather History for Alva, OK

Change the Weather History Date:

Sunday, December 30, 2012

  Actual Average Record
Temperature  
Mean Temperature 32 °F -  
Max Temperature 44 °F 44 °F 76 °F (1956)
Min Temperature 19 °F 23 °F -1 °F (1990)
Degree Days  
Heating Degree Days 34    
Moisture  
Dew Point 19 °F    
Average Humidity 57    
Maximum Humidity 86    
Minimum Humidity 34    
Precipitation  
Precipitation 0.00 in - - ()
Sea Level Pressure  
Sea Level Pressure 30.19 in    
Wind  
Wind Speed 13 mph (SSW)    
Max Wind Speed 30 mph    
Max Gust Speed 39 mph    
Visibility 10 miles    
Events      
Averages and records for this station are not official NWS values.
T = Trace of Precipitation, MM = Missing Value Source: NWS Daily Summary

Daily Weather History Graph

Daily Weather History Graph

Search for Another Location

Airport:

Trip Planner

Search our weather history database for the weather conditions in past years. The results will help you decide how hot, cold, wet, or windy it might be!

Date:

Astronomy

Dec. 30, 2012 Rise Set
Actual Time 7:47 AM CST 5:28 PM CST
Civil Twilight 7:18 AM CST 5:56 PM CST
Nautical Twilight 6:45 AM CST 6:29 PM CST
Astronomical Twilight 6:14 AM CST 7:00 PM CST
Moon 7:56 PM CST (12/30) 9:00 AM CST (12/30)
Length of Visible Light 10h 38m
Length of Day
9h 41m
Waning Gibbous, 95% of the Moon is Illuminated
Dec 30
Waning Gibbous
Jan 4
Last Quarter
Jan 11
New
Jan 18
First Quarter
Jan 26
Full

Hourly Weather History & Observations

Time (CST) Temp. Windchill Dew Point Humidity Pressure Visibility Wind Dir Wind Speed Gust Speed Precip Events Conditions
12:15 AM 21.2 °F 10.9 °F 14.0 °F 74% 30.30 in 10.0 mi SSW 9.2 mph - N/A   Clear
12:35 AM 19.4 °F 8.6 °F 14.0 °F 80% 30.30 in 10.0 mi SSW 9.2 mph - N/A   Clear
12:55 AM 21.2 °F 10.1 °F 15.8 °F 80% 30.29 in 10.0 mi South 10.4 mph - N/A   Clear
1:15 AM 21.2 °F 10.1 °F 15.8 °F 80% 30.28 in 10.0 mi South 10.4 mph - N/A   Clear
1:35 AM 21.2 °F 10.9 °F 15.8 °F 80% 30.28 in 10.0 mi South 9.2 mph - N/A   Clear
1:55 AM 21.2 °F 11.7 °F 15.8 °F 80% 30.28 in 10.0 mi South 8.1 mph - N/A   Clear
2:15 AM 23.0 °F 13.9 °F 17.6 °F 80% 30.28 in 10.0 mi South 8.1 mph - N/A   Clear
2:35 AM 19.4 °F 8.6 °F 15.8 °F 86% 30.28 in 10.0 mi SSW 9.2 mph - N/A   Clear
2:55 AM 24.8 °F 14.0 °F 19.4 °F 80% 30.28 in 10.0 mi SSW 11.5 mph - N/A   Clear
3:15 AM 24.8 °F 14.6 °F 19.4 °F 80% 30.28 in 10.0 mi South 10.4 mph - N/A   Clear
3:35 AM 23.0 °F 11.1 °F 17.6 °F 80% 30.27 in 10.0 mi South 12.7 mph - N/A   Clear
3:55 AM 23.0 °F 11.1 °F 17.6 °F 80% 30.28 in 10.0 mi South 12.7 mph - N/A   Clear
4:15 AM 24.8 °F 14.0 °F 17.6 °F 74% 30.27 in 10.0 mi South 11.5 mph - N/A   Clear
4:35 AM 24.8 °F 14.6 °F 17.6 °F 74% 30.26 in 10.0 mi South 10.4 mph - N/A   Clear
4:55 AM 24.8 °F 15.3 °F 17.6 °F 74% 30.26 in 10.0 mi South 9.2 mph - N/A   Clear
5:15 AM 24.8 °F 15.3 °F 19.4 °F 80% 30.24 in 10.0 mi South 9.2 mph - N/A   Clear
5:35 AM 28.4 °F 17.0 °F 19.4 °F 69% 30.24 in 10.0 mi SSW 15.0 mph - N/A   Partly Cloudy
5:55 AM 28.4 °F 18.0 °F 19.4 °F 69% 30.25 in 10.0 mi South 12.7 mph - N/A   Partly Cloudy
6:15 AM 28.4 °F 17.0 °F 19.4 °F 69% 30.24 in 10.0 mi SSW 15.0 mph - N/A   Partly Cloudy
6:35 AM 28.4 °F 16.6 °F 19.4 °F 69% 30.25 in 10.0 mi South 16.1 mph - N/A   Partly Cloudy
6:55 AM 28.4 °F 17.0 °F 19.4 °F 69% 30.25 in 10.0 mi South 15.0 mph - N/A   Partly Cloudy
7:15 AM 28.4 °F 17.5 °F 19.4 °F 69% 30.25 in 10.0 mi SSW 13.8 mph - N/A   Partly Cloudy
7:35 AM 28.4 °F 18.5 °F 19.4 °F 69% 30.25 in 10.0 mi SSW 11.5 mph - N/A   Clear
7:55 AM 26.6 °F 16.2 °F 19.4 °F 74% 30.26 in 10.0 mi SSW 11.5 mph - N/A   Clear
8:15 AM 28.4 °F 18.0 °F 19.4 °F 69% 30.26 in 9.0 mi SSW 12.7 mph - N/A   Clear
8:55 AM 30.2 °F 20.2 °F 19.4 °F 64% 30.25 in 10.0 mi South 12.7 mph - N/A   Clear
9:15 AM 32.0 °F 22.1 °F 21.2 °F 64% 30.24 in 10.0 mi South 13.8 mph - N/A   Clear
9:35 AM 32.0 °F 22.1 °F 21.2 °F 64% 30.24 in 10.0 mi South 13.8 mph - N/A   Clear
9:55 AM 32.0 °F 22.1 °F 21.2 °F 64% 30.25 in 10.0 mi South 13.8 mph - N/A   Clear
10:15 AM 35.6 °F 25.9 °F 21.2 °F 56% 30.25 in 10.0 mi South 16.1 mph - N/A   Clear
10:35 AM 37.4 °F 27.8 °F 21.2 °F 52% 30.25 in 10.0 mi SSW 17.3 mph - N/A   Clear
10:55 AM 39.2 °F 29.6 °F 21.2 °F 49% 30.25 in 10.0 mi South 19.6 mph 28.8 mph N/A   Clear
11:15 AM 41.0 °F 29.8 °F 19.4 °F 42% 30.23 in 10.0 mi SSW 29.9 mph - N/A   Clear
11:35 AM 44.6 °F 35.7 °F 19.4 °F 37% 30.22 in 10.0 mi SSW 24.2 mph 32.2 mph N/A   Clear
11:55 AM 44.6 °F 34.9 °F 19.4 °F 37% 30.20 in 10.0 mi SSW 28.8 mph 32.2 mph N/A   Clear
12:15 PM 44.6 °F 35.5 °F 19.4 °F 37% 30.19 in 10.0 mi SSW 25.3 mph 32.2 mph N/A   Clear
12:35 PM 44.6 °F 35.5 °F 19.4 °F 37% 30.17 in 10.0 mi SSW 25.3 mph 36.8 mph N/A   Clear
12:55 PM 44.6 °F 35.3 °F 19.4 °F 37% 30.16 in 10.0 mi SSW 26.5 mph 38.0 mph N/A   Clear
1:15 PM 44.6 °F 34.9 °F 19.4 °F 37% 30.15 in 10.0 mi SSW 28.8 mph 39.1 mph N/A   Clear
1:35 PM 44.6 °F 36.4 °F 19.4 °F 37% 30.14 in 10.0 mi SSW 20.7 mph 33.4 mph N/A   Clear
1:55 PM 44.6 °F 35.9 °F 19.4 °F 37% 30.14 in 10.0 mi SSW 23.0 mph 29.9 mph N/A   Clear
2:15 PM 44.6 °F 36.4 °F 17.6 °F 34% 30.14 in 10.0 mi SSW 20.7 mph 35.7 mph N/A   Clear
2:35 PM 44.6 °F 35.7 °F 17.6 °F 34% 30.14 in 10.0 mi SSW 24.2 mph 31.1 mph N/A   Clear
2:55 PM 44.6 °F 36.4 °F 17.6 °F 34% 30.13 in 10.0 mi South 20.7 mph - N/A   Clear
3:15 PM 44.6 °F 36.9 °F 19.4 °F 37% 30.13 in 10.0 mi SSW 18.4 mph 24.2 mph N/A   Clear
3:35 PM 42.8 °F 34.5 °F 19.4 °F 39% 30.13 in 10.0 mi SSW 18.4 mph 26.5 mph N/A   Clear
3:55 PM 42.8 °F 35.4 °F 19.4 °F 39% 30.13 in 10.0 mi South 15.0 mph 20.7 mph N/A   Clear
4:15 PM 41.0 °F 33.5 °F 19.4 °F 42% 30.11 in 10.0 mi South 13.8 mph - N/A   Clear
4:35 PM 41.0 °F 33.5 °F 19.4 °F 42% 30.11 in 10.0 mi South 13.8 mph - N/A   Clear
4:55 PM 41.0 °F 32.8 °F 19.4 °F 42% 30.12 in 10.0 mi SSW 16.1 mph - N/A   Partly Cloudy
5:15 PM 41.0 °F 32.5 °F 19.4 °F 42% 30.11 in 10.0 mi South 17.3 mph 23.0 mph N/A   Mostly Cloudy
5:35 PM 41.0 °F 32.2 °F 19.4 °F 42% 30.11 in 10.0 mi SSW 18.4 mph 21.9 mph N/A   Overcast
5:55 PM 39.2 °F 30.8 °F 19.4 °F 45% 30.10 in 10.0 mi SSW 15.0 mph 21.9 mph N/A   Mostly Cloudy
6:15 PM 39.2 °F 31.2 °F 19.4 °F 45% 30.11 in 10.0 mi SSW 13.8 mph - N/A   Partly Cloudy
6:35 PM 39.2 °F 31.2 °F 19.4 °F 45% 30.11 in 10.0 mi South 13.8 mph - N/A   Partly Cloudy
6:55 PM 39.2 °F 30.8 °F 21.2 °F 49% 30.11 in 10.0 mi South 15.0 mph 20.7 mph N/A   Partly Cloudy
7:15 PM 39.2 °F 31.6 °F 21.2 °F 49% 30.12 in 10.0 mi South 12.7 mph - N/A   Clear
7:35 PM 37.4 °F 29.3 °F 21.2 °F 52% 30.11 in 10.0 mi South 12.7 mph - N/A   Partly Cloudy
7:55 PM 37.4 °F 29.8 °F 21.2 °F 52% 30.12 in 10.0 mi South 11.5 mph - N/A   Partly Cloudy
8:15 PM 37.4 °F 28.5 °F 23.0 °F 56% 30.11 in 10.0 mi SSW 15.0 mph - N/A   Partly Cloudy
8:35 PM 37.4 °F 29.8 °F 23.0 °F 56% 30.12 in 10.0 mi SSW 11.5 mph - N/A   Clear
8:55 PM 37.4 °F 29.3 °F 23.0 °F 56% 30.11 in 10.0 mi SSW 12.7 mph - N/A   Partly Cloudy
9:15 PM 37.4 °F 28.9 °F 23.0 °F 56% 30.10 in 10.0 mi SSW 13.8 mph - N/A   Scattered Clouds
9:35 PM 37.4 °F 30.8 °F 21.2 °F 52% 30.10 in 10.0 mi SSW 9.2 mph - N/A   Mostly Cloudy
9:55 PM 37.4 °F 28.2 °F 21.2 °F 52% 30.08 in 10.0 mi SSW 16.1 mph - N/A   Mostly Cloudy
10:15 PM 37.4 °F 28.9 °F 19.4 °F 48% 30.09 in 10.0 mi SSW 13.8 mph - N/A   Scattered Clouds
10:35 PM 37.4 °F 30.3 °F 19.4 °F 48% 30.09 in 10.0 mi SSW 10.4 mph - N/A   Scattered Clouds
10:55 PM 37.4 °F 29.8 °F 19.4 °F 48% 30.08 in 10.0 mi SSW 11.5 mph - N/A   Mostly Cloudy
11:15 PM 37.4 °F 31.4 °F 19.4 °F 48% 30.09 in 10.0 mi South 8.1 mph - N/A   Mostly Cloudy
11:35 PM 37.4 °F 34.9 °F 19.4 °F 48% 30.09 in 10.0 mi SSE 3.5 mph - N/A   Overcast
11:55 PM 35.6 °F - 19.4 °F 52% 30.09 in 10.0 mi Calm Calm - N/A   Overcast